Location: Kelshall
(52.0000°N, 0.0500°W)
Time: 16:27:02
(UTC+00:00)

USA 186 - Pass Details

Date: 18 September 2020
Orbit: 261 x 425 km, 96.9° (Epoch: 12 October)

Event Time Altitude Azimuth Distance (km) Brightness Sun altitude
Exits shadow 20:20:54 - 212° (SSW) 1,722 4.9 -20.4°
Reaches altitude 10° 20:21:43 10° 221° (SW) 1,455 4.6 -20.5°
Maximum altitude 20:24:01 19° 268° (W) 1,061 4.4 -20.8°
Drops below altitude 10° 20:26:25 10° 316° (NW) 1,511 5.7 -21.1°
Sets 20:28:53 0° 335° (NNW) 2,399 6.5 -21.4°
